Brainerd, MN

4:47 PM CST on December 05, 2019 (GMT -0600)
Brainerd-Crow Wing County Regional

Weather History for KBRD - November, 2019

Change the Weather History Date:

Wednesday, November 13, 2019

  Actual Average Record
Temperature  
Mean Temperature 23 °F 32 °F  
Max Temperature 27 °F 39 °F 68 °F (1999)
Min Temperature 19 °F 23 °F -6 °F (1986)
Degree Days  
Heating Degree Days 42 33  
Month to date heating degree days 530 387  
Since 1 July heating degree days 1316 1289  
Cooling Degree Days 0 0  
Month to date cooling degree days 0 0  
Year to date cooling degree days 485 422  
Moisture  
Dew Point 13 °F    
Average Humidity 69    
Maximum Humidity 78    
Minimum Humidity 56    
Precipitation  
Precipitation 0.02 in 0.06 in 0.60 in (1993)
Month to date precipitation 0.07 0.75  
Year to date precipitation 32.59 26.78  
Snow  
Snow 0.40 in 0.20 in 10.00 in (1983)
Month to date snowfall 1.4 2.5  
Since 1 July snowfall 2.1 2.9  
Since 1 September snowfall 2.1 2.9  
Snow Depth T in    
Sea Level Pressure  
Sea Level Pressure 29.95 in    
Wind  
Wind Speed 8 mph ()    
Max Wind Speed 17 mph    
Max Gust Speed 25 mph    
Visibility 6.4 miles    
Events Snow    
T = Trace of Precipitation, MM = Missing Value Source: Averaged Metar Reports

Daily Weather History Graph

Daily Weather History Graph

Search for Another Location

Airport or City:

Astronomy

Nov. 13, 2019 Rise Set
Actual Time 7:15 AM CST 4:46 PM CST
Civil Twilight 6:42 AM CST 5:18 PM CST
Nautical Twilight 6:06 AM CST 5:54 PM CST
Astronomical Twilight 5:30 AM CST 6:30 PM CST
Moon 5:47 PM CST (11/13) 8:10 AM CST (11/13)
Length of Visible Light 10h 36m
Length of Day
9h 31m
Full, 99% of the Moon is Illuminated
Nov 13
Full
Nov 19
Last Quarter
Nov 26
New
Dec 4
First Quarter
Dec 11
Full

Hourly Weather History & Observations

Time (CST) Temp. Windchill Dew Point Humidity Pressure Visibility Wind Dir Wind Speed Gust Speed Precip Events Conditions
12:53 AM 19.0 °F 5.6 °F 7.0 °F 59% 29.96 in 10.0 mi South 13.8 mph 24.2 mph N/A   Overcast
1:25 AM 19.0 °F 4.5 °F 7.0 °F 59% 29.87 in 10.0 mi South 16.1 mph 24.2 mph N/A   Overcast
2:53 AM 19.9 °F 8.6 °F 8.1 °F 60% 29.91 in 10.0 mi South 10.4 mph 25.3 mph N/A   Overcast
3:31 AM 19.9 °F 8.6 °F 9.0 °F 62% 29.83 in 2.5 mi South 10.4 mph - 0.00 in Snow Light Snow
3:43 AM 19.9 °F 8.6 °F 10.0 °F 65% 29.83 in 2.5 mi South 10.4 mph 18.4 mph 0.00 in Snow Light Snow
3:51 AM 19.4 °F 9.5 °F 10.4 °F 68% 29.83 in 3.0 mi South 8.1 mph - 0.00 in Snow Light Snow
4:53 AM 19.9 °F 11.1 °F 12.0 °F 71% 29.90 in 1.8 mi South 6.9 mph - 0.00 in Snow Light Snow
5:03 AM 19.9 °F 11.1 °F 12.0 °F 71% 29.83 in 2.5 mi South 6.9 mph - 0.00 in Snow Light Snow
5:17 AM 19.9 °F 11.1 °F 12.9 °F 74% 29.83 in 2.5 mi South 6.9 mph - 0.00 in Snow Light Snow
5:31 AM 19.9 °F 10.1 °F 12.9 °F 74% 29.84 in 1.2 mi South 8.1 mph - 0.00 in Snow Light Snow
5:53 AM 19.9 °F 13.4 °F 14.0 °F 78% 29.90 in 1.0 mi SSE 4.6 mph - 0.00 in Snow Light Snow
6:53 AM 19.9 °F 12.1 °F 14.0 °F 78% 29.90 in 1.8 mi South 5.8 mph - 0.02 in Snow Light Snow
7:00 AM 19.9 °F 12.1 °F 14.0 °F 78% 29.84 in 3.0 mi South 5.8 mph - 0.00 in Snow Light Snow
7:07 AM 19.9 °F 12.1 °F 14.0 °F 78% 29.84 in 4.0 mi South 5.8 mph - 0.00 in Snow Light Snow
7:53 AM 21.0 °F 14.6 °F 14.0 °F 74% 29.92 in 4.0 mi South 4.6 mph - 0.00 in   Haze
8:53 AM 21.9 °F 14.5 °F 14.0 °F 72% 29.93 in 9.0 mi South 5.8 mph - 0.00 in   Overcast
9:15 AM 21.9 °F 17.2 °F 14.0 °F 72% 29.87 in 9.0 mi SW 3.5 mph - N/A   Overcast
9:53 AM 21.9 °F 15.7 °F 15.1 °F 75% 29.94 in 6.0 mi SW 4.6 mph - N/A   Haze
10:53 AM 24.1 °F 17.0 °F 16.0 °F 71% 29.95 in 8.0 mi SW 5.8 mph - N/A   Overcast
11:53 AM 26.1 °F 20.5 °F 17.1 °F 69% 29.95 in 7.0 mi Variable 4.6 mph - N/A   Overcast
12:03 PM 25.0 °F 18.1 °F 16.0 °F 69% 29.89 in 6.0 mi West 5.8 mph - N/A   Haze
12:53 PM 26.1 °F 17.6 °F 17.1 °F 69% 29.95 in 9.0 mi West 8.1 mph - N/A   Overcast
1:53 PM 27.0 °F 16.1 °F 18.0 °F 69% 29.96 in 8.0 mi WNW 12.7 mph - N/A   Overcast
2:53 PM 26.1 °F 15.6 °F 17.1 °F 69% 29.98 in 8.0 mi NNW 11.5 mph - N/A   Overcast
3:53 PM 27.0 °F 21.6 °F 17.1 °F 66% 29.99 in 8.0 mi NW 4.6 mph - N/A   Overcast
4:53 PM 27.0 °F 23.0 °F 18.0 °F 69% 30.01 in 8.0 mi NW 3.5 mph - N/A   Overcast
5:53 PM 27.0 °F 17.3 °F 17.1 °F 66% 30.04 in 10.0 mi NNW 10.4 mph - N/A   Overcast
6:53 PM 26.1 °F 15.0 °F 15.1 °F 63% 30.06 in 10.0 mi NW 12.7 mph - N/A   Overcast
7:53 PM 24.1 °F 13.1 °F 14.0 °F 65% 30.09 in 10.0 mi NNW 11.5 mph - N/A   Overcast
8:53 PM 23.0 °F 13.9 °F 12.0 °F 63% 30.12 in 10.0 mi NNW 8.1 mph - N/A   Overcast
9:53 PM 21.9 °F 11.7 °F 12.0 °F 66% 30.14 in 8.0 mi NW 9.2 mph - N/A   Overcast
10:53 PM 21.9 °F 11.7 °F 10.0 °F 60% 30.15 in 10.0 mi NW 9.2 mph - 0.00 in   Overcast
11:53 PM 21.0 °F 12.4 °F 10.9 °F 65% 30.17 in 8.0 mi NW 6.9 mph - N/A   Overcast